Regional Weather Roundup
Issued by NWS

Home | Current Version | Previous Version | Graphics & Text | Print | Product List | Glossary On
Versions: 1 2 3 4 5 6 7 8 9 10 11 12 13 14 15 16 17 18 19 20 21 22 23 24 25 26 27 28 29 30 31 32 33 34 35 36 37 38 39 40 41 42 43 44 45 46 47 48 49 50
000
ASUS43 KFSD 271102
RWRSD

WEATHER ROUNDUP FOR SOUTH DAKOTA
NATIONAL WEATHER SERVICE SIOUX FALLS SD
600 AM CDT THU AUG 27 2015

NOTE: "FAIR" INDICATES FEW OR NO CLOUDS BELOW 12,000 FEET WITH NO
SIGNIFICANT WEATHER AND/OR OBSTRUCTIONS TO VISIBILITY.


SDZ001>005-009-010-012>017-271200-
NORTHWEST AND NORTH CENTRAL SOUTH DAKOTA

CITY           SKY/WX    TMP DP  RH WIND       PRES   REMARKS
BUFFALO          N/A     63  60  90 S7        29.93F
MOBRIDGE       CLOUDY    65  64  97 N7        29.91F
$$

SDZ012>016-024>037-041>051-057-063-072>074-271200-
SOUTHWEST AND SOUTH CENTRAL SOUTH DAKOTA

CITY           SKY/WX    TMP DP  RH WIND       PRES   REMARKS
RAPID CTY ARPT CLOUDY    66  57  72 SW3       30.00R
PIERRE         LGT RAIN  67  63  87 SE7       29.90R
CUSTER         CLOUDY    57  53  86 NW7       30.14F
ELLSWORTH AFB  CLOUDY    65  59  81 S8        29.99R
PHILIP         CLOUDY    68  59  73 E9        29.94R
PINE RIDGE     MOCLDY    64  56  75 NE5       29.98F
WINNER         FAIR      69  65  86 SE24G30   29.90F
$$

SDZ004>011-016>023-039-040-271200-
NORTHEAST SOUTH DAKOTA

CITY           SKY/WX    TMP DP  RH WIND       PRES   REMARKS
ABERDEEN       CLOUDY    64  61  90 SE9       30.00F
WATERTOWN      CLOUDY    62  60  93 S7        30.04R
BROOKINGS      CLOUDY    61  57  88 SW7       30.06S
$$

SDZ017-020-022-023-036>040-048>070-271200-
SOUTHEAST SOUTH DAKOTA

CITY           SKY/WX    TMP DP  RH WIND       PRES   REMARKS
SIOUX FALLS    CLOUDY    64  59  83 E5        30.04R
HURON          LGT RAIN  65  63  93 SE5       30.00F
MITCHELL       TSTM      67  64  90 SW7       30.06R
YANKTON        CLOUDY    64  61  88 NW18G26   30.07R
$$

ABBREVIATIONS USED IN REMARKS
   TC - TEMPERATURE IN CELSIUS
  WCI - WIND CHILL INDEX
   HX - HEAT INDEX
  VSB - VISIBILITY



USA.gov is the U.S. government's official web portal to all federal, state and local government web resources and services.